Regional Weather Roundup
Issued by NWS

Home | Current Version | Previous Version | Text Only | Print | Product List | Glossary On
Versions: 1 2 3 4 5 6 7 8 9 10 11 12 13 14 15 16 17 18 19 20 21 22 23 24 25 26 27 28 29 30 31 32 33 34 35 36 37 38 39 40 41 42 43 44 45 46 47 48 49 50
000
ASUS43 KTOP 032359
RWRKS

WEATHER ROUNDUP FOR KANSAS
NATIONAL WEATHER SERVICE GOODLAND KS
700 PM CDT SUN MAY 03 2015

NOTE:  "FAIR" INDICATES FEW OR NO CLOUDS BELOW 12,000 FEET WITH NO
SIGNIFICANT WEATHER AND/OR OBSTRUCTIONS TO VISIBILITY.

KSZ001>006-013>018-027>032-041>047-040100-
NORTHWEST KANSAS

CITY           SKY/WX    TMP DP  RH WIND       PRES   REMARKS
GOODLAND       MOSUNNY   80  43  26 NE7       29.85S
6HR MIN TEMP:  79; 6HR MAX TEMP:  85;

HAYS           PTSUNNY   84  50  30 S14       29.77S
HILL CITY      PTSUNNY   82  51  34 S6        29.76S
6HR MIN TEMP:  82; 6HR MAX TEMP:  88;

RUSSELL        MOSUNNY   84  52  33 S13       29.75S
6HR MIN TEMP:  84; 6HR MAX TEMP:  90;

$$

KSZ061>065-074>080-084>089-040100-
SOUTHWEST KANSAS

CITY           SKY/WX    TMP DP  RH WIND       PRES   REMARKS
DODGE CITY     SUNNY     83  44  25 S13       29.79S
6HR MIN TEMP:  83; 6HR MAX TEMP:  89;

ELKHART          N/A     64  47  54 SE14        N/A
GARDEN CITY    PTSUNNY   80  43  26 SW9       29.80R
6HR MIN TEMP:  80; 6HR MAX TEMP:  87;

LIBERAL        CLOUDY    72  45  37 SW38G52   29.90R
$$

KSZ066>073-081>083-090>101-040100-
SOUTHEAST KANSAS

CITY           SKY/WX    TMP DP  RH WIND       PRES   REMARKS
CHANUTE        PTSUNNY   78  58  49 S18G25    29.88S
6HR MIN TEMP:  76; 6HR MAX TEMP:  83; 6HR PCP: TRACE;

COFFEYVILLE    PTSUNNY   76  59  55 S13       29.90R
6HR MIN TEMP:  76; 6HR MAX TEMP:  83;

MEDICINE LODGE   N/A     81  58  45 S17G25    29.80S
NEWTON         MOSUNNY   77  55  47 S25       29.84S
PARSONS        PTSUNNY   78  60  53 S15G22    29.91R
6HR MIN TEMP:  78; 6HR MAX TEMP:  83;

WICHITA INTL   MOSUNNY   78  59  51 S21G32    29.83S
6HR MIN TEMP:  78; 6HR MAX TEMP:  84;

WICHITA JABRA  PTSUNNY   77  57  50 S22G30    29.84R
6HR MIN TEMP:  77; 6HR MAX TEMP:  83;

WICHITA MCCONL PTSUNNY   78  59  53 S22G32    29.84S
WINFIELD       PTSUNNY   76  59  55 S14G24    29.87S
6HR MIN TEMP:  76; 6HR MAX TEMP:  84;

$$

KSZ007>012-019>026-033>040-048>060-102>105-040100-
NORTHEAST KANSAS

CITY           SKY/WX    TMP DP  RH WIND       PRES   REMARKS
CONCORDIA      PTSUNNY   83  54  36 S18G24    29.75S
6HR MIN TEMP:  81; 6HR MAX TEMP:  89;

EMPORIA        PTSUNNY   79  55  43 S16       29.83R
6HR MIN TEMP:  79; 6HR MAX TEMP:  86;

LAWRENCE       MOSUNNY   80  57  45 S16G24    29.81S
6HR MIN TEMP:  78; 6HR MAX TEMP:  84; 6HR PCP: TRACE;

MANHATTAN      PTSUNNY   80  57  45 SW15G26   29.76F
6HR MIN TEMP:  79; 6HR MAX TEMP:  87;

OLATHE IND     PTSUNNY   78  59  51 S16       29.85S
6HR MIN TEMP:  75; 6HR MAX TEMP:  83;

OLATHE EXE     PTSUNNY   78  58  49 S18G28    29.84S
6HR MIN TEMP:  74; 6HR MAX TEMP:  81;

SALINA         PTSUNNY   84  56  38 S16       29.77S
6HR MIN TEMP:  83; 6HR MAX TEMP:  88;

TOPEKA BILLARD MOSUNNY   83  56  39 S18G25    29.79S
6HR MIN TEMP:  78; 6HR MAX TEMP:  86;

TOPEKA FORBES  MOSUNNY   82  56  40 S17G23    29.80R
6HR MIN TEMP:  79; 6HR MAX TEMP:  87;

$$



USA.gov is the U.S. government's official web portal to all federal, state and local government web resources and services.